Weather History for KPEX - January, 2014

Change the Weather History Date:

Thursday, January 16, 2014

  Actual Average (KLJF) Record (KLJF)
Temperature  
Mean Temperature 18 °F -  
Max Temperature 35 °F 21 °F 50 °F (1961)
Min Temperature 0 °F 1 °F -36 °F (1977)
Degree Days  
Heating Degree Days 48    
Moisture  
Dew Point 8 °F    
Average Humidity 77    
Maximum Humidity 95    
Minimum Humidity 63    
Precipitation  
Precipitation 0.00 in - - ()
Sea Level Pressure  
Sea Level Pressure 29.64 in    
Wind  
Wind Speed 20 mph (NW)    
Max Wind Speed 28 mph    
Max Gust Speed 38 mph    
Visibility 7 miles    
Events Rain , Snow    
Averages and records for this station are not official NWS values.
T = Trace of Precipitation, MM = Missing Value Source: NWS Daily Summary

Daily Weather History Graph

Daily Weather History Graph

Search for Another Location

Airport or City:

Trip Planner

Search our weather history database for the weather conditions in past years. The results will help you decide how hot, cold, wet, or windy it might be!

Date:

Astronomy

Jan. 16, 2014 Rise Set
Actual Time 7:54 AM CST 5:03 PM CST
Civil Twilight 7:21 AM CST 5:36 PM CST
Nautical Twilight 6:44 AM CST 6:13 PM CST
Astronomical Twilight 6:09 AM CST 6:48 PM CST
Moon 6:01 PM CST (1/16) 7:44 AM CST (1/16)
Length of Visible Light 10h 15m
Length of Day
9h 09m
Full, 100% of the Moon is Illuminated
Jan 16
Full
Jan 23
Last Quarter
Jan 30
New
Feb 6
First Quarter
Feb 14
Full

Hourly Weather History & Observations

Time (CST) Temp. Windchill Dew Point Humidity Pressure Visibility Wind Dir Wind Speed Gust Speed Precip Events Conditions
12:12 AM 35.8 °F 23.2 °F 28.0 °F 73% 29.37 in 7.0 mi WNW 27.6 mph 33.4 mph N/A   Overcast
12:32 AM 34.7 °F 23.4 °F 29.3 °F 81% 29.37 in 10.0 mi West 20.7 mph 28.8 mph N/A   Overcast
12:53 AM 34.9 °F 25.3 °F 28.8 °F 78% 29.36 in 10.0 mi West 15.0 mph - N/A   Overcast
1:12 AM 33.8 °F 23.9 °F 30.0 °F 86% 29.36 in 4.0 mi West 15.0 mph 20.7 mph N/A Snow Light Snow
1:32 AM 33.3 °F 21.5 °F 30.7 °F 90% 29.36 in 3.0 mi West 20.7 mph 24.2 mph N/A Snow Light Snow
1:53 AM 33.1 °F 21.2 °F 31.3 °F 93% 29.36 in 5.0 mi West 20.7 mph 26.5 mph N/A Snow Light Snow
2:13 AM 33.1 °F 21.9 °F 31.3 °F 93% 29.36 in 5.0 mi West 18.4 mph 26.5 mph N/A Snow Light Snow
2:33 AM 32.9 °F 21.6 °F 31.6 °F 95% 29.36 in 7.0 mi West 18.4 mph 26.5 mph N/A Snow Light Snow
2:53 AM 33.1 °F 22.2 °F 31.6 °F 94% 29.36 in 5.0 mi West 17.3 mph - N/A Snow Light Snow
3:12 AM 32.9 °F 21.6 °F 31.6 °F 95% 29.36 in 7.0 mi West 18.4 mph - N/A Snow Light Snow
3:33 AM 32.9 °F 22.0 °F 31.3 °F 94% 29.36 in 7.0 mi West 17.3 mph 23.0 mph N/A Snow Light Snow
3:52 AM 33.1 °F 22.2 °F 31.5 °F 94% 29.35 in 7.0 mi West 17.3 mph 24.2 mph N/A Snow Light Snow
4:12 AM 33.1 °F 22.6 °F 31.5 °F 94% 29.36 in 10.0 mi West 16.1 mph 24.2 mph N/A   Overcast
4:33 AM 33.1 °F 22.6 °F 31.1 °F 92% 29.35 in 5.0 mi West 16.1 mph 24.2 mph N/A Rain Light Rain
4:52 AM 33.1 °F 22.6 °F 30.9 °F 92% 29.35 in 7.0 mi West 16.1 mph 25.3 mph N/A Snow Light Snow
5:12 AM 32.9 °F 22.4 °F 31.1 °F 93% 29.36 in 7.0 mi West 16.1 mph 24.2 mph N/A Snow Light Snow
5:33 AM 29.1 °F 15.7 °F 25.7 °F 87% 29.40 in 3.0 mi NW 21.9 mph 33.4 mph N/A Snow Light Snow
5:52 AM 26.6 °F 12.0 °F 23.2 °F 87% 29.43 in 3.0 mi NW 23.0 mph 31.1 mph N/A Snow Light Snow
6:12 AM 24.6 °F 9.7 °F 20.8 °F 86% 29.45 in 2.5 mi NW 21.9 mph 33.4 mph N/A Snow Light Snow
6:33 AM 23.7 °F 7.5 °F 19.0 °F 82% 29.47 in 7.0 mi NW 25.3 mph 31.1 mph N/A   Overcast
6:52 AM 21.0 °F 6.2 °F 16.7 °F 83% 29.48 in 2.5 mi NW 18.4 mph 28.8 mph N/A Snow Light Snow
7:13 AM 20.1 °F 3.1 °F 13.6 °F 76% 29.49 in 7.0 mi NW 24.2 mph 31.1 mph N/A   Mostly Cloudy
7:32 AM 18.5 °F 0.9 °F 11.5 °F 74% 29.50 in 5.0 mi NW 24.2 mph 32.2 mph N/A   Haze
7:53 AM 16.7 °F 2.0 °F 10.2 °F 76% 29.53 in 5.0 mi NW 15.0 mph 28.8 mph N/A   Haze
8:12 AM 15.6 °F -2.6 °F 8.6 °F 74% 29.54 in 2.5 mi NNW 23.0 mph 38.0 mph N/A   Haze
8:32 AM 14.9 °F -1.3 °F 7.5 °F 73% 29.55 in 7.0 mi NW 17.3 mph 26.5 mph N/A   Overcast
8:53 AM 14.5 °F -1.3 °F 6.4 °F 70% 29.56 in 10.0 mi NW 16.1 mph 27.6 mph N/A   Overcast
9:12 AM 14.0 °F -4.3 °F 5.9 °F 70% 29.58 in 7.0 mi NW 21.9 mph 27.6 mph N/A   Overcast
9:32 AM 13.6 °F -4.4 °F 5.0 °F 68% 29.58 in 5.0 mi WNW 20.7 mph 33.4 mph N/A   Haze
9:52 AM 12.7 °F -5.5 °F 4.1 °F 68% 29.58 in 10.0 mi WNW 20.7 mph 29.9 mph N/A   Overcast
10:12 AM 12.7 °F -4.6 °F 4.1 °F 68% 29.59 in 10.0 mi WNW 18.4 mph 29.9 mph N/A   Overcast
10:33 AM 12.2 °F -6.7 °F 3.2 °F 67% 29.61 in 5.0 mi WNW 21.9 mph 31.1 mph N/A   Haze
10:52 AM 10.8 °F -10.5 °F 0.5 °F 63% 29.62 in 5.0 mi NW 27.6 mph 35.7 mph N/A   Haze
11:12 AM 9.1 °F -11.2 °F 0.7 °F 69% 29.63 in 10.0 mi WNW 23.0 mph 29.9 mph N/A   Overcast
11:32 AM 7.7 °F -11.2 °F -0.6 °F 69% 29.64 in 10.0 mi NW 18.4 mph 34.5 mph N/A   Overcast
11:52 AM 7.0 °F -15.3 °F -0.8 °F 71% 29.65 in 4.0 mi NW 26.5 mph 32.2 mph N/A   Haze
12:12 PM 6.4 °F -15.2 °F -1.5 °F 70% 29.66 in 7.0 mi NW 24.2 mph 34.5 mph N/A   Overcast
12:32 PM 5.9 °F -15.5 °F -1.5 °F 72% 29.67 in 4.0 mi NW 23.0 mph 32.2 mph N/A   Haze
12:52 PM 5.9 °F -14.5 °F -2.6 °F 68% 29.67 in 7.0 mi NW 20.7 mph 34.5 mph N/A   Overcast
1:12 PM 5.7 °F -14.8 °F -0.9 °F 74% 29.68 in 4.0 mi NW 20.7 mph 26.5 mph N/A   Haze
1:32 PM 5.7 °F -14.8 °F -2.2 °F 70% 29.69 in 5.0 mi NW 20.7 mph 34.5 mph N/A   Haze
1:53 PM 5.5 °F -16.4 °F -3.1 °F 68% 29.70 in 3.0 mi NW 24.2 mph 36.8 mph N/A   Haze
2:12 PM 5.0 °F -15.7 °F -3.1 °F 69% 29.71 in 10.0 mi NW 20.7 mph 29.9 mph N/A   Mostly Cloudy
2:32 PM 5.5 °F -15.0 °F -4.0 °F 65% 29.73 in 7.0 mi NW 20.7 mph 32.2 mph N/A   Scattered Clouds
2:52 PM 5.5 °F -15.9 °F -3.6 °F 66% 29.74 in 7.0 mi NW 23.0 mph 31.1 mph N/A   Clear
3:12 PM 5.0 °F -14.7 °F -3.3 °F 69% 29.75 in 7.0 mi NW 18.4 mph 29.9 mph N/A   Scattered Clouds
3:32 PM 5.2 °F -17.3 °F -4.0 °F 66% 29.76 in 10.0 mi NW 25.3 mph 33.4 mph N/A   Mostly Cloudy
3:53 PM 4.6 °F -16.2 °F -3.1 °F 70% 29.78 in 5.0 mi NW 20.7 mph 28.8 mph N/A   Haze
4:12 PM 4.5 °F -15.4 °F -3.6 °F 69% 29.79 in 7.0 mi NW 18.4 mph 31.1 mph N/A   Overcast
4:33 PM 3.9 °F -18.1 °F -3.5 °F 71% 29.80 in 3.0 mi NW 23.0 mph 29.9 mph N/A   Haze
4:52 PM 3.6 °F -17.1 °F -3.1 °F 74% 29.82 in 1.8 mi NW 19.6 mph 26.5 mph N/A Snow Light Snow
5:12 PM 3.2 °F -17.6 °F -2.2 °F 78% 29.83 in 5.0 mi NW 19.6 mph 24.2 mph N/A   Haze
5:32 PM 3.6 °F -16.6 °F -2.4 °F 76% 29.84 in 5.0 mi NW 18.4 mph 27.6 mph N/A   Haze
5:53 PM 3.6 °F -17.6 °F -1.5 °F 80% 29.85 in 1.2 mi NW 20.7 mph 26.5 mph N/A Snow Light Snow
6:12 PM 3.2 °F -16.5 °F -2.2 °F 78% 29.86 in 3.0 mi NW 17.3 mph 25.3 mph N/A   Haze
6:32 PM 3.6 °F -17.1 °F -3.1 °F 74% 29.86 in 10.0 mi NW 19.6 mph 25.3 mph N/A   Overcast
6:52 PM 3.6 °F -15.4 °F -3.3 °F 73% 29.87 in 10.0 mi NW 16.1 mph 26.5 mph N/A   Overcast
7:12 PM 3.7 °F -17.4 °F -3.3 °F 73% 29.88 in 10.0 mi NW 20.7 mph 29.9 mph N/A   Overcast
7:32 PM 3.7 °F -17.4 °F -3.1 °F 73% 29.89 in 10.0 mi NW 20.7 mph 29.9 mph N/A   Overcast
7:53 PM 3.6 °F -17.6 °F -3.1 °F 74% 29.89 in 10.0 mi NW 20.7 mph 26.5 mph N/A   Overcast
8:12 PM 3.7 °F -15.8 °F -3.1 °F 73% 29.90 in 10.0 mi NW 17.3 mph 23.0 mph N/A   Overcast
8:32 PM 3.7 °F -15.8 °F -3.1 °F 73% 29.90 in 10.0 mi NW 17.3 mph 24.2 mph N/A   Overcast
8:52 PM 3.7 °F -16.4 °F -2.9 °F 74% 29.90 in 10.0 mi NW 18.4 mph 25.3 mph N/A   Overcast
9:12 PM 3.9 °F -16.1 °F -2.7 °F 74% 29.91 in 10.0 mi NW 18.4 mph 29.9 mph N/A   Overcast
9:32 PM 3.7 °F -17.4 °F -2.7 °F 74% 29.91 in 10.0 mi NW 20.7 mph 28.8 mph N/A   Overcast
9:53 PM 3.7 °F -15.8 °F -2.7 °F 74% 29.91 in 10.0 mi NW 17.3 mph 27.6 mph N/A   Overcast
10:12 PM 3.2 °F -17.1 °F -3.1 °F 75% 29.92 in 10.0 mi NW 18.4 mph 28.8 mph N/A   Overcast
10:32 PM 2.3 °F -19.8 °F -4.0 °F 75% 29.92 in 10.0 mi NW 21.9 mph 27.6 mph N/A   Overcast
10:53 PM 1.8 °F -17.8 °F -4.4 °F 76% 29.93 in 10.0 mi NW 16.1 mph 26.5 mph N/A   Overcast
11:12 PM 1.2 °F -19.1 °F -4.9 °F 75% 29.94 in 10.0 mi NW 17.3 mph 21.9 mph N/A   Overcast
11:32 PM 0.5 °F -19.4 °F -5.3 °F 77% 29.95 in 10.0 mi NW 16.1 mph 24.2 mph N/A   Overcast
11:52 PM 0.5 °F -16.5 °F -5.4 °F 76% 29.95 in 10.0 mi NW 11.5 mph 20.7 mph N/A   Overcast